Weather History for Port Clinton Carl R Keller Fi, OH

Change the Weather History Date:

Wednesday, February 5, 2014

  Actual Average (KTOL) Record (KTOL)
Temperature  
Mean Temperature 17 °F 26 °F  
Max Temperature 24 °F 34 °F 56 °F (1938)
Min Temperature 10 °F 19 °F -13 °F (1918)
Degree Days  
Heating Degree Days 48 39  
Month to date heating degree days 195  
Since 1 July heating degree days 3744  
Cooling Degree Days 0 0  
Month to date cooling degree days 0  
Year to date cooling degree days 0  
Moisture  
Dew Point 16 °F    
Average Humidity 87    
Maximum Humidity 100    
Minimum Humidity 73    
Precipitation  
Precipitation 0.00 in 0.06 in 1.44 in (2008)
Month to date precipitation 0.33  
Year to date precipitation 2.38  
Snow  
Snow 0.00 in 0.40 in - ()
Month to date snowfall 1.9  
Since 1 July snowfall 23.0  
Snow Depth -    
Sea Level Pressure  
Sea Level Pressure 30.02 in    
Wind  
Wind Speed 15 mph (NNE)    
Max Wind Speed 24 mph    
Max Gust Speed 25 mph    
Visibility 5 miles    
Events Rain , Snow    
T = Trace of Precipitation, MM = Missing Value Source: NWS Daily Summary

Daily Weather History Graph

Daily Weather History Graph

Search for Another Location

Airport:

Trip Planner

Search our weather history database for the weather conditions in past years. The results will help you decide how hot, cold, wet, or windy it might be!

Date:

Astronomy

Feb. 05, 2014 Rise Set
Actual Time 7:38 AM EST 5:52 PM EST
Civil Twilight 7:09 AM EST 6:21 PM EST
Nautical Twilight 6:36 AM EST 6:54 PM EST
Astronomical Twilight 6:04 AM EST 7:26 PM EST
Moon 10:47 AM EST (2/5) No Moon Set
Length of Visible Light 11h 11m
Length of Day
10h 13m
Waxing Crescent, 39% of the Moon is Illuminated
Feb 5
Waxing Crescent
Feb 6
First Quarter
Feb 14
Full
Feb 22
Last Quarter
Mar 1
New

Hourly Weather History & Observations

Time (EST) Temp. Windchill Dew Point Humidity Pressure Visibility Wind Dir Wind Speed Gust Speed Precip Events Conditions
12:13 AM 21.2 °F 8.3 °F 17.6 °F 86% 30.07 in 1.5 mi East 13.8 mph - N/A Snow Light Snow
12:25 AM 21.2 °F 7.3 °F 17.6 °F 86% 30.06 in 1.8 mi ENE 16.1 mph - N/A Snow Light Snow
12:54 AM 21.2 °F 7.8 °F 17.6 °F 86% 30.02 in 2.0 mi ENE 15.0 mph - N/A Snow Light Snow
1:14 AM 21.2 °F 6.8 °F 17.6 °F 86% 30.00 in 1.5 mi ENE 17.3 mph - N/A Snow Light Snow
1:34 AM 21.2 °F 7.3 °F 19.4 °F 93% 30.00 in 2.5 mi ENE 16.1 mph - N/A Snow Light Snow
1:49 AM 21.2 °F 6.8 °F 19.4 °F 93% 29.97 in 3.0 mi ENE 17.3 mph - N/A Snow Light Snow
2:14 AM 21.2 °F 6.0 °F 19.4 °F 93% 29.95 in 1.5 mi ENE 19.6 mph - N/A Snow Light Snow
2:34 AM 21.2 °F 8.3 °F 19.4 °F 93% 29.97 in 1.2 mi ENE 13.8 mph - N/A Snow Light Snow
2:44 AM 21.2 °F 6.8 °F 19.4 °F 93% 29.96 in 1.2 mi ENE 17.3 mph - N/A Snow Light Snow
3:06 AM 21.2 °F 7.8 °F 19.4 °F 93% 29.94 in 2.5 mi ENE 15.0 mph - N/A Snow Light Snow
3:22 AM 21.2 °F 6.4 °F 19.4 °F 93% 29.93 in 3.0 mi ENE 18.4 mph - N/A Snow Light Snow
3:54 AM 21.2 °F 6.0 °F 19.4 °F 93% 29.90 in 2.0 mi ENE 19.6 mph - N/A Snow Light Snow
4:14 AM 21.2 °F 6.0 °F 19.4 °F 93% 29.88 in 2.0 mi ENE 19.6 mph - N/A Snow Light Snow
4:34 AM 21.2 °F 6.4 °F 19.4 °F 93% 29.85 in 2.5 mi ENE 18.4 mph - N/A Snow Light Snow
4:46 AM 21.2 °F 5.6 °F 19.4 °F 93% 29.83 in 2.0 mi ENE 20.7 mph - N/A Snow Light Snow
5:14 AM 21.2 °F 4.9 °F 19.4 °F 93% 29.80 in 1.5 mi ENE 23.0 mph - N/A Snow Light Snow
5:34 AM 21.2 °F 5.2 °F 19.4 °F 93% 29.78 in 1.5 mi ENE 21.9 mph - N/A Snow Light Snow
5:51 AM 21.2 °F 4.9 °F 19.4 °F 93% 29.78 in 1.5 mi ENE 23.0 mph - N/A Snow Light Snow
6:09 AM 21.2 °F 4.9 °F 19.4 °F 93% 29.77 in 1.2 mi ENE 23.0 mph - N/A Snow Light Snow
6:31 AM 21.2 °F 4.5 °F 19.4 °F 93% 29.75 in 0.5 mi ENE 24.2 mph - N/A Snow Light Snow
6:39 AM 21.2 °F 6.0 °F 19.4 °F 93% 29.75 in 0.5 mi ENE 19.6 mph - N/A Snow Light Snow
7:04 AM 21.2 °F 6.4 °F 21.2 °F 100% 29.79 in 0.8 mi ENE 18.4 mph - N/A Snow Light Snow
7:29 AM 21.2 °F 7.3 °F 21.2 °F 100% 29.80 in 0.8 mi NE 16.1 mph - N/A Snow Light Snow
7:54 AM 21.2 °F 10.1 °F 19.4 °F 93% 29.81 in 0.5 mi NE 10.4 mph - N/A Snow Light Snow
8:14 AM 19.4 °F 7.2 °F 17.6 °F 93% 29.82 in 0.2 mi NNE 11.5 mph - N/A Snow Snow
8:23 AM 19.4 °F 6.0 °F 17.6 °F 93% 29.81 in 0.2 mi NNE 13.8 mph - N/A Snow Snow
8:38 AM 19.4 °F 5.5 °F 17.6 °F 93% 29.80 in 0.8 mi NNE 15.0 mph - N/A Snow Light Snow
9:09 AM 19.4 °F 6.0 °F 17.6 °F 93% 29.81 in 1.5 mi NNE 13.8 mph - N/A Snow Light Snow
9:30 AM 19.4 °F 4.5 °F 17.6 °F 93% 29.81 in 3.0 mi NNE 17.3 mph - N/A Snow Light Snow
9:54 AM 19.4 °F 5.5 °F 17.6 °F 93% - 5.0 mi NNE 15.0 mph 25.3 mph N/A Snow Light Snow
10:14 AM 19.4 °F 5.5 °F 17.6 °F 93% 29.84 in 3.0 mi NNE 15.0 mph - N/A Snow Light Snow
10:34 AM 19.4 °F 6.0 °F 17.6 °F 93% 29.86 in 1.8 mi NNE 13.8 mph 25.3 mph N/A Snow Light Snow
10:54 AM 19.4 °F 5.0 °F 17.6 °F 93% 29.87 in 3.0 mi NNE 16.1 mph - N/A Snow Light Snow
11:13 AM 21.2 °F 7.3 °F 17.6 °F 86% 29.89 in 4.0 mi NNE 16.1 mph - N/A Snow Light Snow
11:32 AM 21.2 °F 8.3 °F 17.6 °F 86% 29.89 in 2.0 mi NNE 13.8 mph - N/A Snow Light Snow
11:54 AM 21.2 °F 7.3 °F 17.6 °F 86% 29.91 in 1.2 mi North 16.1 mph - N/A Snow Light Snow
12:14 PM 21.2 °F 7.8 °F 19.4 °F 93% - 1.8 mi North 15.0 mph - N/A Snow Light Snow
12:34 PM 21.2 °F 7.8 °F 19.4 °F 93% 29.94 in 1.8 mi North 15.0 mph - N/A Snow Light Snow
12:46 PM 21.2 °F 6.0 °F 19.4 °F 93% 29.94 in 1.8 mi North 19.6 mph - N/A Snow Light Snow
1:05 PM 21.2 °F 6.8 °F 19.4 °F 93% - 2.5 mi North 17.3 mph - N/A Snow Light Snow
1:34 PM 21.2 °F 6.4 °F 19.4 °F 93% 29.96 in 1.0 mi North 18.4 mph - N/A Snow Light Snow
1:40 PM 21.2 °F 6.4 °F 19.4 °F 93% 29.97 in 1.0 mi North 18.4 mph - N/A Snow Light Snow
2:14 PM 21.2 °F 7.3 °F 19.4 °F 93% 29.99 in 1.5 mi North 16.1 mph - N/A Snow Light Snow
2:34 PM 21.2 °F 8.3 °F 17.6 °F 86% 30.00 in 4.0 mi North 13.8 mph - N/A Snow Light Snow
2:52 PM 21.2 °F 7.3 °F 17.6 °F 86% 30.02 in 10.0 mi North 16.1 mph - N/A Rain Light Freezing Rain
3:14 PM 24.8 °F 12.9 °F 19.4 °F 80% 30.05 in 8.0 mi North 13.8 mph - N/A Rain Light Freezing Rain
3:34 PM 23.0 °F 12.4 °F 19.4 °F 86% 30.06 in 10.0 mi North 10.4 mph - N/A   Mostly Cloudy
3:54 PM 23.0 °F 13.1 °F 19.4 °F 86% 30.07 in 10.0 mi North 9.2 mph - N/A   Mostly Cloudy
4:14 PM 21.2 °F 10.9 °F 15.8 °F 80% 30.09 in 10.0 mi NNE 9.2 mph - N/A   Mostly Cloudy
4:34 PM 21.2 °F 10.9 °F 15.8 °F 80% 30.11 in 10.0 mi NNE 9.2 mph - N/A   Mostly Cloudy
4:54 PM 22.1 °F 10.6 °F 16.2 °F 78% 30.13 in 10.0 mi North 11.5 mph - N/A   Mostly Cloudy
5:14 PM 21.2 °F 9.5 °F 14.0 °F 74% 30.14 in 10.0 mi North 11.5 mph - N/A   Mostly Cloudy
5:34 PM 19.4 °F 9.5 °F 12.2 °F 74% 30.16 in 10.0 mi North 8.1 mph - N/A   Mostly Cloudy
5:37 PM 19.4 °F 10.4 °F 12.2 °F 74% 30.16 in 10.0 mi North 6.9 mph - N/A   Mostly Cloudy
6:14 PM 15.8 °F 5.1 °F 10.4 °F 79% 30.20 in 10.0 mi North 8.1 mph - N/A   Partly Cloudy
6:34 PM 15.8 °F 5.1 °F 10.4 °F 79% 30.22 in 10.0 mi North 8.1 mph - N/A   Mostly Cloudy
6:54 PM 15.8 °F 5.1 °F 10.4 °F 79% 30.23 in 10.0 mi NNE 8.1 mph - N/A   Overcast
7:14 PM 19.4 °F 10.4 °F 12.2 °F 74% 30.24 in 10.0 mi North 6.9 mph - N/A   Overcast
7:34 PM 19.4 °F 11.5 °F 14.0 °F 80% 30.26 in 10.0 mi North 5.8 mph - N/A   Overcast
7:54 PM 19.0 °F 10.0 °F 14.0 °F 81% 30.27 in 10.0 mi North 6.9 mph - N/A   Overcast
8:14 PM 17.6 °F 8.2 °F 10.4 °F 73% 30.27 in 10.0 mi North 6.9 mph - N/A   Overcast
8:29 PM 17.6 °F 8.2 °F 10.4 °F 73% 30.28 in 10.0 mi North 6.9 mph - N/A   Overcast
8:50 PM 19.4 °F 14.3 °F 14.0 °F 80% 30.30 in 10.0 mi NW 3.5 mph - N/A   Overcast
9:14 PM 19.4 °F 14.3 °F 14.0 °F 80% 30.32 in 10.0 mi NW 3.5 mph - N/A   Overcast
9:34 PM 17.6 °F 10.7 °F 12.2 °F 79% 30.33 in 10.0 mi NW 4.6 mph - N/A   Overcast
9:47 PM 17.6 °F 10.7 °F 12.2 °F 79% 30.32 in 10.0 mi NW 4.6 mph - N/A   Overcast
10:14 PM 15.8 °F 7.2 °F 8.6 °F 73% 30.32 in 10.0 mi North 5.8 mph - N/A   Scattered Clouds
10:34 PM 12.2 °F - 6.8 °F 79% 30.33 in 10.0 mi Calm Calm - N/A   Partly Cloudy
10:54 PM 12.0 °F 5.9 °F 6.1 °F 77% 30.33 in 10.0 mi North 3.5 mph - N/A   Mostly Cloudy
11:14 PM 12.2 °F - 6.8 °F 79% 30.34 in 10.0 mi Calm Calm - N/A   Scattered Clouds
11:34 PM 10.4 °F - 6.8 °F 85% 30.34 in 10.0 mi Calm Calm - N/A   Clear
11:54 PM 12.0 °F - 7.2 °F 81% 30.33 in 10.0 mi Calm Calm - N/A   Clear